Weather History for K0VG - March, 2013

Change the Weather History Date:

Tuesday, March 12, 2013

  Actual Average (KLOZ) Record (KLOZ)
Temperature  
Mean Temperature 40 °F 46 °F  
Max Temperature 48 °F 57 °F 82 °F (1990)
Min Temperature 32 °F 35 °F 6 °F (1960)
Degree Days  
Heating Degree Days 25 19  
Month to date heating degree days 244  
Since 1 July heating degree days 3520  
Cooling Degree Days 0 0  
Month to date cooling degree days 0  
Year to date cooling degree days 0  
Moisture  
Dew Point 33 °F    
Average Humidity 77    
Maximum Humidity 100    
Minimum Humidity 46    
Precipitation  
Precipitation 0.02 in 0.13 in 3.22 in (1975)
Month to date precipitation 1.57  
Year to date precipitation 8.82  
Sea Level Pressure  
Sea Level Pressure 30.00 in    
Wind  
Wind Speed 4 mph (West)    
Max Wind Speed 12 mph    
Max Gust Speed -    
Visibility 10 miles    
Events Rain    
T = Trace of Precipitation, MM = Missing Value Source: NWS Daily Summary

Daily Weather History Graph

Daily Weather History Graph

Search for Another Location

Airport or City:

Trip Planner

Search our weather history database for the weather conditions in past years. The results will help you decide how hot, cold, wet, or windy it might be!

Date:

Astronomy

Mar. 12, 2013 Rise Set
Actual Time 7:47 AM EDT 7:37 PM EDT
Civil Twilight 7:22 AM EDT 8:03 PM EDT
Nautical Twilight 6:52 AM EDT 8:33 PM EDT
Astronomical Twilight 6:21 AM EDT 9:03 PM EDT
Moon 7:56 AM EDT (3/12) 8:48 PM EDT (3/12)
Length of Visible Light 12h 41m
Length of Day
11h 50m
New Moon, 1% of the Moon is Illuminated
Mar 12
New Moon
Mar 19
First Quarter
Mar 27
Full
Apr 3
Last Quarter
Apr 10
New

Hourly Weather History & Observations

Time (EDT) Temp. Windchill Dew Point Humidity Pressure Visibility Wind Dir Wind Speed Gust Speed Precip Events Conditions
12:35 AM 46.4 °F 42.4 °F 44.6 °F 93% 29.89 in 5.0 mi WNW 8.1 mph - 0.01 in Rain Light Rain
12:55 AM 44.6 °F 39.7 °F 42.8 °F 93% 29.88 in 3.0 mi NW 9.2 mph - 0.02 in Rain Light Rain
1:15 AM 42.8 °F 38.0 °F 41.0 °F 93% 29.88 in 10.0 mi WNW 8.1 mph - N/A   Mostly Cloudy
1:35 AM 41.0 °F - 39.2 °F 93% 29.89 in 10.0 mi Calm Calm - N/A   Overcast
1:55 AM 41.0 °F 37.1 °F 39.2 °F 93% 29.90 in 10.0 mi WNW 5.8 mph - N/A   Mostly Cloudy
2:15 AM 41.0 °F 38.0 °F 39.2 °F 93% 29.90 in 10.0 mi WNW 4.6 mph - N/A   Mostly Cloudy
2:35 AM 39.2 °F 35.0 °F 37.4 °F 93% 29.91 in 8.0 mi NW 5.8 mph - N/A Rain Light Rain
2:55 AM 39.2 °F 35.9 °F 37.4 °F 93% 29.91 in 7.0 mi WNW 4.6 mph - N/A Rain Light Rain
3:15 AM 39.2 °F 37.0 °F 37.4 °F 93% 29.91 in 2.5 mi West 3.5 mph - N/A Rain Light Rain
3:35 AM 39.2 °F - 37.4 °F 93% 29.91 in 5.0 mi Calm Calm - N/A Rain Light Rain
4:15 AM 39.2 °F - 35.6 °F 87% 29.92 in 10.0 mi Calm Calm - N/A   Overcast
4:35 AM 39.2 °F - 35.6 °F 87% 29.92 in 10.0 mi Calm Calm - N/A   Overcast
4:55 AM 39.2 °F - 35.6 °F 87% 29.92 in 10.0 mi Calm Calm - N/A   Overcast
5:15 AM 39.2 °F - 35.6 °F 87% 29.92 in 10.0 mi Calm Calm - N/A   Overcast
5:35 AM 37.4 °F - 33.8 °F 87% 29.93 in 10.0 mi Calm Calm - N/A   Mostly Cloudy
5:55 AM 37.4 °F - 35.6 °F 93% 29.93 in 10.0 mi Calm Calm - N/A   Mostly Cloudy
6:15 AM 37.4 °F - 33.8 °F 87% 29.94 in 10.0 mi Calm Calm - N/A   Overcast
6:35 AM 37.4 °F - 33.8 °F 87% 29.95 in 10.0 mi Calm Calm - N/A   Overcast
6:55 AM 37.4 °F 34.9 °F 32.0 °F 81% 29.96 in 10.0 mi WNW 3.5 mph - N/A   Overcast
7:15 AM 37.4 °F - 32.0 °F 81% 29.97 in 10.0 mi Calm Calm - N/A   Overcast
7:35 AM 37.4 °F 33.8 °F 32.0 °F 81% 29.98 in 10.0 mi WNW 4.6 mph - N/A   Overcast
7:55 AM 37.4 °F 33.8 °F 32.0 °F 81% 29.99 in 10.0 mi WNW 4.6 mph - N/A   Overcast
8:15 AM 37.4 °F - 32.0 °F 81% 29.98 in 10.0 mi Calm Calm - N/A   Overcast
8:35 AM 37.4 °F - 32.0 °F 81% 30.00 in 10.0 mi Calm Calm - N/A   Overcast
8:55 AM 37.4 °F - 32.0 °F 81% 30.00 in 10.0 mi Calm Calm - N/A   Overcast
9:15 AM 37.4 °F 33.8 °F 32.0 °F 81% 30.00 in 10.0 mi WNW 4.6 mph - N/A   Overcast
9:35 AM 39.2 °F 35.9 °F 32.0 °F 75% 30.01 in 10.0 mi WNW 4.6 mph - N/A   Overcast
9:55 AM 39.2 °F 35.9 °F 32.0 °F 75% 30.02 in 10.0 mi NW 4.6 mph - N/A   Overcast
10:15 AM 39.2 °F 35.0 °F 32.0 °F 75% 30.01 in 10.0 mi West 5.8 mph - N/A   Overcast
10:35 AM 39.2 °F - 30.2 °F 70% 30.02 in 10.0 mi Calm Calm - N/A   Overcast
10:55 AM 39.2 °F - 30.2 °F 70% 30.03 in 10.0 mi Calm Calm - N/A   Overcast
11:15 AM 39.2 °F 34.2 °F 32.0 °F 75% 30.03 in 10.0 mi WNW 6.9 mph - N/A   Overcast
11:35 AM 39.2 °F 35.9 °F 32.0 °F 75% 30.04 in 10.0 mi WNW 4.6 mph - N/A   Overcast
11:55 AM 39.2 °F 34.2 °F 32.0 °F 75% 30.04 in 10.0 mi WNW 6.9 mph - N/A   Overcast
12:15 PM 39.2 °F 32.0 °F 32.0 °F 75% 30.06 in 10.0 mi WNW 11.5 mph - N/A   Overcast
12:35 PM 39.2 °F 35.0 °F 32.0 °F 75% 30.06 in 10.0 mi WNW 5.8 mph - N/A   Overcast
12:55 PM 39.2 °F 35.0 °F 32.0 °F 75% 30.06 in 10.0 mi West 5.8 mph - N/A   Overcast
1:15 PM 39.2 °F 33.0 °F 32.0 °F 75% 30.05 in 10.0 mi WSW 9.2 mph - N/A   Overcast
1:35 PM 41.0 °F 35.8 °F 30.2 °F 65% 30.05 in 10.0 mi WSW 8.1 mph - N/A   Mostly Cloudy
1:55 PM 41.0 °F 34.3 °F 30.2 °F 65% 30.05 in 10.0 mi WSW 11.5 mph - N/A   Mostly Cloudy
2:15 PM 41.0 °F 34.7 °F 30.2 °F 65% 30.05 in 10.0 mi WSW 10.4 mph - N/A   Overcast
2:35 PM 42.8 °F 38.6 °F 30.2 °F 61% 30.04 in 10.0 mi SSW 6.9 mph - N/A   Overcast
2:55 PM 44.6 °F 40.7 °F 30.2 °F 57% 30.04 in 10.0 mi WNW 6.9 mph - N/A   Overcast
3:15 PM 44.6 °F 40.2 °F 30.2 °F 57% 30.03 in 10.0 mi SW 8.1 mph - N/A   Mostly Cloudy
3:35 PM 44.6 °F 42.2 °F 30.2 °F 57% 30.03 in 10.0 mi WSW 4.6 mph - N/A   Partly Cloudy
3:55 PM 46.4 °F 42.4 °F 30.2 °F 53% 30.02 in 10.0 mi West 8.1 mph - N/A   Scattered Clouds
4:15 PM 46.4 °F 41.5 °F 30.2 °F 53% 30.02 in 10.0 mi WSW 10.4 mph - N/A   Partly Cloudy
4:35 PM 46.4 °F 41.1 °F 32.0 °F 57% 30.02 in 10.0 mi WSW 11.5 mph - N/A   Clear
4:55 PM 48.2 °F - 32.0 °F 54% 30.02 in 10.0 mi West 8.1 mph - N/A   Clear
5:15 PM 48.2 °F - 30.2 °F 50% 30.03 in 10.0 mi West 9.2 mph - N/A   Partly Cloudy
5:35 PM 48.2 °F - 30.2 °F 50% 30.03 in 10.0 mi West 11.5 mph - N/A   Partly Cloudy
5:55 PM 48.2 °F - 30.2 °F 50% 30.03 in 10.0 mi West 8.1 mph - N/A   Clear
6:15 PM 48.2 °F - 28.4 °F 46% 30.03 in 10.0 mi West 6.9 mph - N/A   Clear
6:35 PM 46.4 °F 42.4 °F 30.2 °F 53% 30.04 in 10.0 mi WNW 8.1 mph - N/A   Clear
6:55 PM 46.4 °F 43.5 °F 28.4 °F 50% 30.04 in 10.0 mi WNW 5.8 mph - N/A   Clear
7:15 PM 46.4 °F 45.2 °F 30.2 °F 53% 30.04 in 10.0 mi NW 3.5 mph - N/A   Clear
7:35 PM 44.6 °F - 32.0 °F 61% 30.04 in 10.0 mi Calm Calm - N/A   Clear
7:55 PM 42.8 °F - 32.0 °F 66% 30.04 in 10.0 mi Calm Calm - N/A   Clear
8:15 PM 41.0 °F - 32.0 °F 70% 30.05 in 10.0 mi Calm Calm - N/A   Clear
8:35 PM 39.2 °F - 32.0 °F 75% 30.05 in 10.0 mi Calm Calm - N/A   Clear
8:55 PM 37.4 °F - 32.0 °F 81% 30.06 in 10.0 mi Calm Calm - N/A   Clear
9:15 PM 35.6 °F - 32.0 °F 87% 30.06 in 10.0 mi Calm Calm - N/A   Unknown
9:35 PM 35.6 °F - 32.0 °F 87% 30.06 in 10.0 mi Calm Calm - N/A   Unknown
9:55 PM 35.6 °F - 32.0 °F 87% 30.07 in 10.0 mi Calm Calm - N/A   Unknown
10:15 PM 32.0 °F - 32.0 °F 100% 30.07 in 10.0 mi Calm Calm - N/A   Unknown
10:35 PM 32.0 °F - 32.0 °F 100% 30.07 in 10.0 mi Calm Calm - N/A   Unknown
10:55 PM 32.0 °F - 32.0 °F 100% 30.08 in 10.0 mi Calm Calm - N/A   Unknown
11:15 PM 32.0 °F - 32.0 °F 100% 30.08 in 10.0 mi Calm Calm - N/A   Unknown
11:35 PM 32.0 °F - 32.0 °F 100% 30.09 in 10.0 mi Calm Calm - N/A   Unknown
11:55 PM 32.0 °F - 30.2 °F 93% 30.09 in 9.0 mi Calm Calm - N/A   Unknown